COSMOS 367

导读 | 豆包AI

COSMOS 367(宇宙367)是苏联(现归属独联体CIS)于1970年10月3日发射,属于苏联传奇的“宇宙”系列卫星。该系列涵盖科研与军事任务,此星大概率承担空间环境探测或早期军用测试任务。作为冷战时期苏联航天活动的产物,它完成在轨使命后,最终再入大气层销毁,是苏联航天探索历程中的一颗代表性早期卫星。

Basic Information
目录编号:
4564
目录名称:
COSMOS 367
国际标识:
1970-079A
轨道中心:
EARTH
卫星名称:
COSMOS 367
卫星全名:
--
卫星状态:
在轨 (已飞行20298 天)
发射日期:
1970-10-03 UTC
国别 :
俄罗斯(独联体) (CIS)
星等 :
--
Orbit Information
数据来源 国际轨道数据
星历时间: 2026-04-30T18:43:46+0800
6小时前
查看轨道信息
半长轴: 7347.119km
偏心率: 0.0048155
轨道倾角: 65.277°
近地点辐角 90.139°
升交点赤经 180.309°
平近点角 270.519°
近地点: 933.601km
远地点: 1004.363km
周期: 104.456分钟
每日圈数: 13.785648
Detailed Information
使用方式:
暂无
2D Orbit Map
3D Orbit Map
Orbit Altitude Analysis Chart
Orbit Inclination Analysis Chart
Orbit Comprehensive Analysis Chart
View Comprehensive Chart